TimeCST,TemperatureF,Dew PointF,Humidity,Sea Level PressureIn,VisibilityMPH,Wind Direction,Wind SpeedMPH,Gust SpeedMPH,PrecipitationIn,Events,Conditions,WindDirDegrees,DateUTC
12:54 AM,37.0,27.0,67,30.25,10.0,South,13.8,-,N/A,,Overcast,190,2013-01-05 06:54:00
1:54 AM,37.0,28.0,70,30.23,10.0,South,13.8,-,N/A,,Overcast,190,2013-01-05 07:54:00
2:54 AM,36.0,28.9,76,30.22,10.0,South,12.7,-,N/A,,Overcast,190,2013-01-05 08:54:00
3:54 AM,36.0,30.0,79,30.21,9.0,South,11.5,-,0.00,,Overcast,180,2013-01-05 09:54:00
4:54 AM,35.1,28.9,78,30.19,10.0,South,11.5,-,N/A,,Overcast,180,2013-01-05 10:54:00
5:54 AM,35.1,28.9,78,30.18,10.0,South,15.0,-,N/A,,Overcast,190,2013-01-05 11:54:00
6:54 AM,36.0,28.9,76,30.17,10.0,South,16.1,-,N/A,,Overcast,190,2013-01-05 12:54:00
7:54 AM,36.0,28.9,76,30.17,10.0,SSW,12.7,-,N/A,,Overcast,200,2013-01-05 13:54:00
8:54 AM,37.0,30.0,76,30.19,10.0,South,11.5,-,N/A,,Mostly Cloudy,190,2013-01-05 14:54:00
9:54 AM,37.9,30.0,73,30.20,10.0,SSW,15.0,-,N/A,,Overcast,200,2013-01-05 15:54:00
11:54 AM,43.0,30.0,60,30.17,10.0,SW,16.1,23.0,N/A,,Partly Cloudy,220,2013-01-05 17:54:00
12:54 PM,45.0,28.9,53,30.13,10.0,SW,13.8,23.0,N/A,,Clear,230,2013-01-05 18:54:00
1:54 PM,46.0,28.0,50,30.11,10.0,SW,12.7,23.0,N/A,,Clear,230,2013-01-05 19:54:00
2:54 PM,46.9,27.0,46,30.12,10.0,WSW,16.1,-,N/A,,Clear,240,2013-01-05 20:54:00
3:54 PM,46.9,28.0,48,30.16,10.0,West,13.8,-,N/A,,Clear,270,2013-01-05 21:54:00
4:54 PM,44.1,27.0,51,30.18,10.0,West,11.5,-,N/A,,Clear,270,2013-01-05 22:54:00
5:54 PM,37.9,25.0,60,30.22,10.0,WNW,11.5,-,N/A,,Clear,290,2013-01-05 23:54:00
6:54 PM,33.1,19.9,59,30.25,10.0,WNW,10.4,-,N/A,,Clear,290,2013-01-06 00:54:00
7:54 PM,30.9,19.9,64,30.26,10.0,WNW,10.4,-,N/A,,Clear,290,2013-01-06 01:54:00
8:54 PM,30.9,19.9,64,30.27,10.0,West,9.2,-,N/A,,Clear,280,2013-01-06 02:54:00
9:54 PM,30.0,21.0,69,30.28,10.0,West,8.1,-,N/A,,Clear,270,2013-01-06 03:54:00
10:54 PM,30.9,21.9,69,30.29,10.0,WNW,10.4,-,N/A,,Clear,290,2013-01-06 04:54:00
11:54 PM,30.0,21.9,72,30.30,10.0,WNW,9.2,-,N/A,,Clear,290,2013-01-06 05:54:00